{"data":{"norad_id":68263,"intl_designator":"2026-055B","name":"STARLINK-37156","alt_names":[],"object_type":"PAYLOAD","status":"ACTIVE","operator":null,"country":"US","launch_date":"2026-03-19","launch_site_code":"AFETR","launch_vehicle":null,"mission":null,"orbit_class":"UNKNOWN","rcs_meters":null,"size_class":null,"mass_kg":null,"dimensions":null,"purposes":["comms"],"wikipedia_slug":null,"has_3d_model":false,"image_url":null,"decayed_at":null,"tle_current":{"epoch":"2026-09-20T01:50:41.905824Z","epoch_age_seconds":88384,"freshness":"FRESH","line1":"1 68263U 26055B   26263.07687391  .00014144  00000+0  42882-3 0  9993","line2":"2 68263  53.1562 133.4479 0001031  88.3995 271.7126 15.34409497 29730","mean_motion":15.34409497,"eccentricity":0.0001031,"inclination_deg":53.1562,"raan_deg":133.4479,"arg_perigee_deg":88.3995,"mean_anomaly_deg":271.7126,"bstar":0.00042882,"rev_number":2973,"period_min":93.847177224555,"perigee_km":461.96972554873,"apogee_km":463.38030098586,"semimajor_km":6840.8120132673,"source":"CELESTRAK","updated_at":"2026-09-20T09:00:43.845831Z"}}}